1501491600.21,20689,23.06,74752.3,12.05,10.13,10.09,0,*45
1501491601.44,20690,23.06,74752.0,12.05,10.13,10.09,0,*4D
1501491602.69,20691,23.06,74748.5,12.05,10.19,10.13,0,*4D
1501491603.96,20692,23.06,74752.0,12.05,10.19,10.19,0,*44
1501491605.16,20693,23.06,74752.0,12.07,10.13,10.13,0,*47
1501491606.35,20694,23.06,74754.0,12.07,10.03,10.03,0,*40
1501491607.57,20695,23.06,74754.0,12.05,10.09,10.03,0,*49
1501491608.8,20696,23.06,74752.3,12.05,10.09,10.13,0,*4B
1501491610.02,20697,23.13,74754.5,12.05,10.09,10.03,0,*4B
1501491611.23,20698,23.06,74754.5,12.05,10.09,9.99,0,*7F
1501491612.43,20699,23.06,74754.0,12.07,10.05,10.05,0,*4D
1501491613.64,20700,23.06,74750.8,12.05,10.03,9.99,0,*75
1501491614.86,20701,23.06,74754.5,12.05,10.09,10.03,0,*45
1501491616.08,20702,23.06,74748.5,12.05,10.13,10.03,0,*4D
1501491617.3,20703,23.06,74752.5,12.05,10.09,10.03,0,*47
1501491618.53,20704,23.06,74752.5,12.05,10.13,10.13,0,*4A
1501491619.75,20705,23.06,74750.8,12.05,10.03,10.03,0,*4B
1501491620.95,20706,23.06,74752.8,12.05,10.03,9.99,0,*73
1501491622.16,20707,23.06,74754.8,12.05,10.03,9.99,0,*72
1501491623.38,20708,23.06,74752.5,12.01,10.05,9.99,0,*7F
1501491624.59,20709,23.06,74752.0,12.05,10.09,9.99,0,*76
1501491625.81,20710,23.06,74748.8,12.05,10.03,10.03,0,*4F
1501491627.03,20711,23.06,74748.5,12.05,10.09,10.03,0,*44
1501491628.25,20712,23.06,74754.5,12.05,10.09,9.99,0,*7C
1501491629.46,20713,23.13,74754.0,12.01,10.05,9.99,0,*75
1501491630.73,20714,23.06,74750.0,12.01,9.81,9.85,0,*4B
1501491631.94,20715,23.06,74752.3,12.01,9.91,9.91,0,*4E
1501491633.15,20716,23.06,74754.3,12.05,10.03,9.99,0,*72
1501491634.36,20717,23.06,74748.3,12.01,9.91,9.91,0,*4C
1501491635.6,20718,23.06,74750.0,12.01,9.81,9.75,0,*48
1501491636.83,20719,23.06,74754.8,12.05,9.95,9.85,0,*47
1501491638.1,20720,23.06,74754.8,12.01,9.85,9.81,0,*4C
1501491639.33,20721,23.13,74754.3,12.05,9.95,9.89,0,*40
1501491640.57,20722,23.06,74750.8,12.01,9.91,9.85,0,*4F
1501491641.81,20723,23.06,74750.3,12.01,9.91,9.81,0,*4A
1501491643.05,20724,23.06,74752.8,12.01,9.85,9.75,0,*43
1501491644.29,20725,23.06,74752.5,12.01,9.91,9.85,0,*48
1501491645.5,20726,23.06,74756.0,12.01,9.99,9.95,0,*42
1501491646.73,20727,23.06,74752.5,12.01,9.95,9.85,0,*4E
1501491647.96,20728,23.06,74754.8,12.01,9.95,9.85,0,*41
1501491649.17,20729,23.06,74752.3,11.99,9.91,9.85,0,*46
1501491650.39,20730,23.06,74754.3,11.99,9.85,9.75,0,*44
1501491651.59,20731,23.13,74758.5,12.01,9.75,9.63,0,*4F
1501491652.83,20732,23.06,74754.5,11.97,9.77,9.67,0,*46
1501491654.04,20733,23.06,74754.3,11.99,9.85,9.75,0,*47
1501491655.25,20734,23.06,74752.5,11.97,9.71,9.67,0,*46
1501491656.51,20735,23.06,74752.8,11.97,9.77,9.77,0,*40
1501491657.69,20736,23.13,74756.8,11.99,9.91,9.95,0,*49
1501491658.88,20737,23.06,74750.5,11.99,9.99,9.95,0,*40
1501491660.06,20738,23.06,74756.0,11.99,9.95,9.95,0,*43
1501491661.26,20739,23.06,74754.0,11.97,9.91,9.91,0,*4C
1501491662.44,20740,23.06,74754.8,11.99,9.95,9.95,0,*4C
1501491663.68,20741,23.06,74754.3,11.97,9.91,9.81,0,*42
1501491664.94,20742,23.06,74754.3,11.97,9.89,9.89,0,*40
1501491666.15,20743,23.06,74754.3,11.97,9.91,9.91,0,*41
1501491667.36,20744,23.06,74754.5,11.97,9.91,9.91,0,*46
1501491668.56,20745,23.06,74754.0,11.97,9.91,9.91,0,*47
1501491669.83,20746,23.06,74752.5,11.97,9.81,9.81,0,*44
1501491671.09,20747,23.06,74754.8,11.97,9.89,9.89,0,*45
1501491672.29,20748,23.06,74754.0,11.97,9.95,9.95,0,*4A
1501491673.49,20749,23.06,74752.5,11.97,9.95,9.95,0,*4B
1501491674.71,20750,23.06,74750.8,11.97,9.95,10.05,0,*72
1501491675.93,20751,23.06,74752.5,11.97,10.13,10.05,0,*45
1501491677.16,20752,23.06,74752.5,11.97,10.13,10.05,0,*46
1501491678.38,20753,23.06,74754.8,11.97,10.03,10.05,0,*46
1501491679.6,20754,23.06,74754.0,11.97,10.05,10.17,0,*44
1501491680.85,20755,23.06,74756.0,11.97,10.17,10.23,0,*41
1501491682.1,20756,23.06,74752.5,11.97,10.13,10.23,0,*46
1501491683.35,20757,23.06,74754.0,11.97,10.17,10.23,0,*43
1501491684.6,20758,23.06,74754.3,11.97,10.17,10.23,0,*4C
1501491685.83,20759,23.06,74754.8,11.97,10.13,10.13,0,*4A
1501491687.08,20760,23.06,74758.0,11.97,10.17,10.23,0,*47
1501491688.33,20761,23.06,74752.5,11.97,10.13,10.23,0,*42
1501491689.58,20762,23.06,74756.0,11.99,10.27,10.27,0,*4C
1501491690.83,20763,23.06,74756.0,11.97,10.13,10.23,0,*40
1501491692.06,20764,23.06,74752.3,11.97,10.13,10.13,0,*44
1501491693.29,20765,23.06,74754.5,11.99,10.17,10.19,0,*45
1501491694.49,20766,23.06,74752.5,11.97,9.91,9.95,0,*42
1501491695.67,20767,23.06,74752.3,11.99,9.95,9.95,0,*49
1501491696.89,20768,23.06,74754.5,11.97,10.03,10.05,0,*4E
1501491698.11,20769,23.06,74754.3,11.97,10.03,10.05,0,*4F
1501491699.33,20770,23.06,74754.3,11.97,10.05,10.05,0,*41
1501491700.56,20771,23.06,74756.8,11.97,10.05,10.03,0,*46
1501491701.78,20772,23.06,74754.5,11.97,10.05,10.13,0,*44
1501491703.01,20773,23.06,74754.0,11.97,10.05,10.13,0,*45
1501491704.24,20774,23.06,74752.8,11.97,10.05,10.13,0,*42
1501491705.47,20775,23.06,74752.5,11.97,10.05,10.13,0,*43
1501491706.69,20776,23.06,74754.8,11.97,10.03,10.03,0,*47
1501491707.9,20777,23.06,74754.3,11.97,9.95,10.05,0,*77
1501491709.12,20778,23.06,74754.5,11.97,10.03,10.03,0,*49
1501491710.32,20779,23.06,74758.0,11.97,9.91,9.95,0,*4C
1501491711.54,20780,23.06,74756.0,11.95,9.91,10.03,0,*7F
1501491712.75,20781,23.06,74754.8,11.97,9.91,10.03,0,*7C
1501491713.99,20782,23.06,74754.8,11.97,9.81,9.91,0,*4D
1501491715.25,20783,23.06,74754.8,11.95,9.85,9.89,0,*43
1501491716.46,20784,23.06,74754.0,11.95,9.75,9.67,0,*4B
1501491717.72,20785,23.06,74754.3,11.95,9.77,9.85,0,*44
1501491718.98,20786,23.06,74758.3,11.95,9.77,9.85,0,*47
1501491720.24,20787,23.06,74754.8,11.95,9.77,9.85,0,*46
1501491721.5,20788,23.06,74754.8,11.95,9.89,9.89,0,*44
1501491722.73,20789,23.06,74756.0,11.93,9.77,9.77,0,*43
1501491723.99,20790,23.06,74750.8,11.95,9.77,9.85,0,*40
1501491725.23,20791,23.06,74752.3,11.95,9.75,9.77,0,*4E
1501491726.49,20792,23.06,74750.8,11.95,9.77,9.77,0,*4F
1501491727.72,20793,23.06,74752.3,11.93,9.77,9.77,0,*48
1501491728.89,20794,23.06,74754.3,11.93,9.67,9.63,0,*4B
1501491730.1,20795,23.06,74754.0,11.95,9.75,9.75,0,*48
1501491731.34,20796,23.06,74752.5,11.93,9.85,9.77,0,*40
1501491732.52,20797,23.06,74754.3,11.93,9.99,9.91,0,*44
1501491733.71,20798,23.06,74754.3,11.93,10.03,10.03,0,*43
1501491734.89,20799,23.06,74754.3,11.93,9.99,9.99,0,*42
1501491736.1,20800,23.06,74754.8,11.95,10.03,9.99,0,*70
1501491737.27,20801,23.06,74754.5,11.93,9.99,9.99,0,*4C
1501491738.45,20802,23.06,74756.0,11.93,9.99,9.91,0,*47
1501491739.66,20803,23.06,74752.8,11.93,9.91,9.89,0,*47
1501491740.87,20804,23.06,74752.3,11.95,9.91,9.99,0,*47
1501491742.04,20805,23.06,74752.5,11.93,9.99,9.99,0,*48
1501491743.22,20806,23.06,74754.8,11.93,9.91,9.99,0,*43
1501491744.4,20807,23.06,74752.5,11.93,9.91,9.99,0,*42
1501491745.61,20808,23.06,74754.0,11.93,9.89,9.91,0,*4C
1501491746.79,20809,23.06,74754.0,11.93,9.91,9.91,0,*44
1501491747.99,20810,23.06,74752.5,11.93,9.91,9.89,0,*45
1501491749.2,20811,23.06,74752.0,11.95,9.99,9.99,0,*4B
1501491750.38,20812,23.06,74754.5,11.93,9.99,9.99,0,*4E
1501491751.59,20813,23.06,74754.3,11.95,10.03,9.99,0,*72
1501491752.77,20814,23.06,74754.5,11.93,9.99,9.91,0,*40
1501491754.0,20815,23.06,74758.5,11.93,9.89,9.89,0,*49
1501491755.26,20816,23.06,74754.3,11.91,9.81,9.81,0,*48
1501491756.52,20817,23.06,74754.3,11.91,9.85,9.77,0,*44
1501491757.78,20818,23.06,74756.8,11.91,9.85,9.85,0,*46
1501491758.98,20819,23.06,74756.0,11.91,9.95,9.95,0,*47
1501491760.18,20820,23.06,74754.3,11.91,9.99,9.99,0,*4D
1501491761.36,20821,23.06,74756.5,11.89,10.03,10.03,0,*45
1501491762.58,20822,23.06,74754.0,11.91,10.05,10.05,0,*4F
1501491763.81,20823,23.06,74754.5,11.91,10.05,10.05,0,*4E
1501491765.0,20824,23.06,74752.0,11.93,10.09,10.09,0,*4B
1501491766.2,20825,23.06,74756.0,11.93,10.13,10.09,0,*41
1501491767.4,20826,23.06,74752.0,11.93,10.13,10.13,0,*49
1501491768.62,20827,23.06,74758.0,11.91,10.09,10.09,0,*4A
1501491769.84,20828,23.06,74756.5,11.91,10.17,10.09,0,*4A
1501491771.06,20829,23.06,74756.3,11.91,10.17,10.09,0,*4B
1501491772.28,20830,23.06,74752.0,11.91,10.05,10.17,0,*4F
1501491773.5,20831,23.06,74752.3,11.93,10.13,10.19,0,*45
1501491774.7,20832,23.06,74756.5,11.93,10.09,10.09,0,*4C
1501491775.89,20833,23.06,74752.0,11.93,10.09,10.09,0,*4D
1501491777.09,20834,23.06,74752.5,11.91,9.95,9.95,0,*48
1501491778.27,20835,23.06,74752.0,11.93,9.91,9.91,0,*4B
1501491779.5,20836,23.06,74758.8,11.93,9.85,9.89,0,*44
1501491780.68,20837,23.06,74758.3,11.93,9.99,9.91,0,*41
1501491781.89,20838,23.06,74758.0,11.91,9.99,9.95,0,*48
1501491783.1,20839,23.06,74756.0,11.91,9.99,10.05,0,*78
1501491784.36,20840,23.06,74754.8,11.91,10.19,10.19,0,*4B
1501491785.63,20841,23.06,74756.0,11.91,10.19,10.27,0,*47
1501491786.87,20842,23.06,74756.8,11.93,10.23,10.23,0,*4B
1501491788.15,20843,23.06,74754.0,11.95,10.23,10.31,0,*4F
1501491789.39,20844,23.06,74754.0,11.93,10.19,10.23,0,*44
1501491790.64,20845,23.06,74752.8,11.93,10.19,10.19,0,*4C
1501491791.88,20846,23.06,74752.3,11.93,10.19,10.23,0,*46
1501491793.15,20847,23.06,74752.3,11.95,10.19,10.23,0,*41
1501491794.38,20848,23.06,74758.5,11.93,10.13,10.19,0,*4B
1501491795.65,20849,23.06,74756.5,11.95,10.23,10.23,0,*46
1501491796.93,20850,23.06,74758.0,11.95,10.31,10.31,0,*4E
1501491798.21,20851,23.06,74756.0,11.95,10.31,10.31,0,*4F
1501491799.48,20852,23.06,74758.3,11.97,10.23,10.27,0,*4A
1501491800.73,20853,23.06,74758.5,11.93,10.31,10.31,0,*4B
1501491801.98,20854,23.06,74758.0,11.95,10.13,10.23,0,*49
1501491803.24,20855,23.06,74758.5,11.97,10.37,10.37,0,*49
1501491804.46,20856,23.06,74760.8,11.95,10.43,10.43,0,*48
1501491805.66,20857,23.06,74758.8,11.97,10.43,10.43,0,*4B
1501491806.92,20858,23.06,74760.8,11.95,10.31,10.33,0,*44
1501491808.16,20859,23.06,74762.0,11.97,10.37,10.55,0,*41
1501491809.37,20860,23.06,74762.5,11.99,10.51,10.65,0,*46
1501491810.59,20861,23.06,74760.5,11.97,10.43,10.55,0,*49
1501491811.82,20862,23.06,74762.3,11.97,10.57,10.69,0,*40
1501491813.06,20863,23.06,74762.0,11.99,10.57,10.71,0,*46
1501491814.3,20864,23.06,74762.3,11.99,10.41,10.57,0,*42
1501491815.54,20865,23.06,74756.8,11.99,10.27,10.37,0,*45
1501491816.81,20866,23.06,74758.8,12.01,10.19,10.19,0,*45
1501491818.08,20867,23.06,74758.3,12.01,10.31,10.41,0,*43
1501491819.33,20868,23.06,74758.8,12.01,10.19,10.17,0,*45
1501491820.55,20869,23.06,74752.3,11.99,10.19,10.17,0,*46
1501491821.82,20870,23.06,74756.0,12.01,10.19,10.19,0,*42
1501491823.1,20871,23.06,74756.3,12.01,10.19,10.19,0,*43
1501491824.33,20872,23.06,74756.0,12.07,10.37,10.37,0,*46
1501491825.57,20873,23.06,74752.5,12.07,10.27,10.37,0,*46
1501491826.78,20874,23.06,74756.3,12.05,10.51,10.43,0,*41
1501491827.99,20875,23.06,74756.8,12.05,10.51,10.55,0,*47
1501491829.2,20876,23.06,74760.5,12.05,10.51,10.51,0,*40
1501491830.4,20877,23.06,74760.0,12.07,10.33,10.43,0,*44
1501491831.6,20878,23.06,74758.8,12.07,10.33,10.47,0,*4F
1501491832.86,20879,23.06,74762.8,12.09,10.23,10.37,0,*46
1501491834.09,20880,23.06,74756.5,12.09,10.17,10.37,0,*47
1501491835.32,20881,23.06,74756.0,12.09,10.17,10.33,0,*42
1501491836.54,20882,23.06,74756.8,12.09,10.17,10.33,0,*41
1501491837.78,20883,23.06,74758.5,12.13,10.37,10.47,0,*4A
1501491839.0,20884,23.06,74760.3,12.11,10.37,10.47,0,*4F
1501491840.25,20885,23.06,74758.5,12.11,10.27,10.31,0,*4E
1501491841.48,20886,23.06,74758.8,12.13,10.41,10.51,0,*49
1501491842.7,20887,23.06,74758.0,12.11,10.51,10.57,0,*4D
1501491843.91,20888,23.06,74752.8,12.13,10.47,10.47,0,*46
1501491845.17,20889,23.06,74758.3,12.13,10.41,10.37,0,*46
1501491846.43,20890,23.06,74758.5,12.13,10.41,10.41,0,*4F
1501491847.71,20891,23.06,74756.5,12.13,10.31,10.31,0,*4E
1501491848.97,20892,23.06,74758.3,12.13,10.27,10.27,0,*4D
1501491850.24,20893,23.06,74758.5,12.13,10.27,10.27,0,*4C
1501491851.44,20894,23.06,74760.0,12.15,10.33,10.33,0,*4D
1501491852.67,20895,23.06,74760.0,12.17,10.33,10.33,0,*4E
1501491853.9,20896,23.06,74760.0,12.17,10.33,10.47,0,*4E
1501491855.12,20897,23.06,74758.8,12.15,10.33,10.41,0,*4B
1501491856.36,20898,23.06,74760.8,12.17,10.33,10.37,0,*47
1501491857.6,20899,23.06,74758.5,12.17,10.55,10.57,0,*40
1501491858.86,20900,23.06,74756.0,12.17,10.57,10.61,0,*46
1501491860.08,20901,23.06,74756.8,12.17,10.47,10.55,0,*41
1501491861.29,20902,23.06,74760.8,12.17,10.43,10.47,0,*45
1501491862.49,20903,23.06,74758.5,12.15,10.47,10.55,0,*41
1501491863.71,20904,23.06,74756.5,12.17,10.47,10.47,0,*47
1501491864.92,20905,23.06,74760.3,12.17,10.47,10.55,0,*45
1501491866.16,20906,23.06,74756.0,12.21,10.41,10.51,0,*41
1501491867.4,20907,23.06,74756.8,12.19,10.37,10.37,0,*4A
1501491868.66,20908,23.06,74758.0,12.21,10.37,10.41,0,*4F
1501491869.9,20909,23.06,74758.3,12.19,10.31,10.37,0,*42
1501491871.15,20910,23.06,74758.5,12.19,10.31,10.37,0,*4A
1501491872.39,20911,23.06,74760.3,12.19,10.31,10.37,0,*4B
1501491873.65,20912,23.06,74756.8,12.21,10.37,10.41,0,*44
1501491874.89,20913,23.06,74758.3,12.21,10.37,10.47,0,*43
1501491876.15,20914,23.06,74754.3,12.21,10.41,10.41,0,*43
1501491877.41,20915,23.06,74758.8,12.21,10.37,10.41,0,*43
1501491878.67,20916,23.06,74758.0,12.21,10.37,10.37,0,*41
1501491879.91,20917,23.06,74754.8,12.19,10.41,10.41,0,*4B
1501491881.15,20918,23.06,74758.3,12.21,10.41,10.47,0,*49
1501491882.36,20919,23.06,74756.0,12.23,10.41,10.51,0,*4D
1501491883.54,20920,23.06,74756.5,12.23,10.43,10.51,0,*45
1501491884.76,20921,23.06,74756.5,12.27,10.55,10.57,0,*41
1501491885.94,20922,23.06,74756.8,12.23,10.51,10.55,0,*40
1501491887.13,20923,23.06,74760.3,12.23,10.43,10.43,0,*45
1501491888.34,20924,23.06,74754.8,12.27,10.37,10.43,0,*45
1501491889.56,20925,23.06,74756.0,12.23,10.33,10.41,0,*46
1501491890.78,20926,23.06,74762.0,12.27,10.37,10.43,0,*47
1501491891.98,20927,23.06,74758.0,12.27,10.33,10.43,0,*42
1501491893.19,20928,23.06,74756.8,12.27,10.37,10.43,0,*49
1501491894.43,20929,23.06,74756.5,12.23,10.19,10.41,0,*42
1501491895.68,20930,23.06,74760.0,12.27,10.23,10.27,0,*47
1501491896.91,20931,23.06,74756.8,12.27,10.09,10.23,0,*4A
1501491898.15,20932,23.06,74758.8,12.23,10.31,10.41,0,*42
1501491899.37,20933,23.06,74758.5,12.27,10.37,10.43,0,*43
1501491900.59,20934,23.06,74758.3,12.27,10.33,10.37,0,*43
1501491901.81,20935,23.06,74758.0,12.27,10.23,10.33,0,*47
1501491903.04,20936,23.06,74758.5,12.23,10.17,10.23,0,*46
1501491904.28,20937,23.06,74756.0,12.27,10.23,10.37,0,*41
1501491905.51,20938,23.06,74756.5,12.27,10.23,10.33,0,*4A
1501491906.76,20939,23.06,74758.3,12.27,10.23,10.27,0,*4E
1501491908.01,20940,23.06,74760.0,12.27,10.23,10.27,0,*40
1501491909.26,20941,23.06,74758.3,12.27,10.23,10.27,0,*41
1501491910.49,20942,23.06,74756.5,12.27,10.13,10.23,0,*45
1501491911.72,20943,23.06,74758.8,12.27,10.09,10.19,0,*46
1501491912.94,20944,23.06,74756.5,12.27,10.19,10.33,0,*48
1501491914.15,20945,23.06,74758.3,12.27,10.33,10.33,0,*41
1501491915.37,20946,23.06,74756.0,12.27,10.27,10.33,0,*47
1501491916.59,20947,23.06,74756.5,12.27,10.27,10.33,0,*46
1501491917.85,20948,23.06,74756.5,12.27,10.23,10.23,0,*4C
1501491919.1,20949,23.06,74754.5,12.27,10.19,10.19,0,*4D
1501491920.35,20950,23.06,74754.5,12.27,10.19,10.23,0,*4C
1501491921.59,20951,23.06,74762.3,12.27,10.37,10.37,0,*44
1501491922.83,20952,23.06,74756.3,12.23,10.19,10.27,0,*4E
1501491924.08,20953,23.06,74756.0,12.27,10.19,10.23,0,*4F
1501491925.3,20954,23.06,74754.0,12.27,10.19,10.33,0,*49
1501491926.56,20955,23.06,74756.0,12.27,10.23,10.23,0,*40
1501491927.76,20956,23.06,74758.0,12.27,10.09,10.13,0,*48
1501491928.96,20957,23.06,74758.5,12.27,10.05,10.17,0,*41
1501491930.16,20958,23.06,74756.5,12.23,10.05,10.05,0,*49
1501491931.35,20959,23.06,74756.5,12.23,9.99,10.05,0,*75
1501491932.58,20960,23.06,74758.3,12.27,10.09,10.19,0,*47
1501491933.81,20961,23.06,74758.8,12.23,10.17,10.23,0,*44
1501491935.0,20962,23.06,74758.0,12.23,10.17,10.17,0,*40
1501491936.23,20963,23.06,74756.8,12.23,10.17,10.19,0,*4F
1501491937.47,20964,23.06,74758.8,12.23,10.23,10.31,0,*45
1501491938.7,20965,23.06,74758.8,12.27,10.27,10.33,0,*46
1501491939.93,20966,23.06,74756.5,12.27,10.13,10.19,0,*4A
1501491941.18,20967,23.06,74758.3,12.27,10.23,10.23,0,*41
1501491942.43,20968,23.06,74756.0,12.27,10.19,10.27,0,*43
1501491943.66,20969,23.06,74760.0,12.27,10.09,10.19,0,*4E
1501491944.91,20970,23.06,74756.3,12.27,10.23,10.23,0,*47
1501491946.16,20971,23.06,74756.5,12.29,10.23,10.33,0,*49
1501491947.39,20972,23.06,74756.3,12.27,10.23,10.33,0,*44
1501491948.63,20973,23.06,74758.5,12.27,10.27,10.37,0,*45
1501491949.85,20974,23.06,74756.0,12.27,10.23,10.33,0,*42
1501491951.05,20975,23.06,74754.0,12.23,10.09,10.09,0,*46
1501491952.28,20976,23.06,74754.8,12.27,10.23,10.33,0,*40
1501491953.5,20977,23.06,74758.3,12.27,10.27,10.33,0,*45
1501491954.74,20978,23.06,74756.5,12.27,10.23,10.37,0,*4A
1501491955.97,20979,23.06,74756.3,12.27,10.23,10.33,0,*4F
1501491957.19,20980,23.06,74756.8,12.27,10.33,10.37,0,*4C
1501491958.43,20981,23.06,74758.3,12.27,10.37,10.37,0,*49
1501491959.65,20982,23.06,74758.3,12.27,10.27,10.33,0,*4F
1501491960.87,20983,23.06,74760.3,12.27,10.37,10.43,0,*48
1501491962.13,20984,23.06,74758.0,12.29,10.27,10.37,0,*43
1501491963.4,20985,23.06,74758.0,12.29,10.23,10.37,0,*46
1501491964.66,20986,23.06,74758.5,12.29,10.19,10.27,0,*4D
1501491965.92,20987,23.06,74758.5,12.29,10.27,10.37,0,*40
1501491967.13,20988,23.06,74754.3,12.31,10.41,10.51,0,*46
1501491968.36,20989,23.06,74760.0,12.29,10.33,10.43,0,*48
1501491969.58,20990,23.06,74756.3,12.29,10.33,10.47,0,*44
1501491970.8,20991,23.06,74758.3,12.29,10.33,10.43,0,*41
1501491972.02,20992,23.06,74756.8,12.31,10.41,10.47,0,*4A
1501491973.28,20993,23.06,74756.8,12.29,10.27,10.37,0,*45
1501491974.52,20994,23.06,74760.8,12.31,10.31,10.37,0,*4C
1501491975.76,20995,23.06,74756.8,12.31,10.31,10.41,0,*4C
1501491977.0,20996,23.06,74756.8,12.31,10.37,10.41,0,*49
1501491978.24,20997,23.06,74754.3,12.29,10.33,10.37,0,*44
1501491979.43,20998,23.06,74760.8,12.31,10.47,10.51,0,*41
1501491980.63,20999,23.06,74756.3,12.31,10.47,10.47,0,*47
1501491981.86,21000,23.06,74758.8,12.31,10.41,10.37,0,*4E
1501491983.09,21001,23.06,74760.5,12.31,10.37,10.37,0,*4E
1501491984.36,21002,23.06,74756.8,12.33,10.27,10.27,0,*4F
1501491985.63,21003,23.06,74758.0,12.33,10.31,10.37,0,*48
1501491986.9,21004,23.06,74756.0,12.33,10.37,10.37,0,*49
1501491988.16,21005,23.06,74756.0,12.33,10.37,10.41,0,*49
1501491989.43,21006,23.06,74758.3,12.33,10.41,10.41,0,*4B
1501491990.69,21007,23.06,74758.5,12.33,10.37,10.41,0,*4B
1501491991.96,21008,23.06,74756.0,12.33,10.31,10.37,0,*43
1501491993.25,21009,23.06,74758.3,12.33,10.31,10.31,0,*44
1501491994.52,21010,23.06,74754.5,12.33,10.27,10.31,0,*4B
1501491995.8,21011,23.06,74756.0,12.33,10.27,10.31,0,*4A
1501491997.07,21012,23.06,74756.0,12.33,10.23,10.31,0,*4D
1501491998.28,21013,23.06,74756.8,12.35,10.33,10.33,0,*49
1501491999.56,21014,23.06,74756.0,12.33,10.31,10.31,0,*48
1501492000.79,21015,23.06,74756.0,12.35,10.33,10.31,0,*4D
1501492002.04,21016,23.06,74754.8,12.35,10.41,10.31,0,*4B
1501492003.31,21017,23.06,74760.3,12.33,10.23,10.23,0,*4B
1501492004.59,21018,23.06,74754.0,12.33,10.31,10.37,0,*42
1501492005.83,21019,23.06,74754.0,12.35,10.27,10.31,0,*44
1501492007.06,21020,23.06,74754.8,12.35,10.17,10.27,0,*4A
1501492008.29,21021,23.06,74754.3,12.33,10.13,10.05,0,*49
1501492009.52,21022,23.06,74754.8,12.33,10.05,10.05,0,*4D
1501492010.73,21023,23.06,74754.5,12.33,9.95,10.03,0,*7B
1501492011.96,21024,23.06,74754.3,12.33,10.03,10.13,0,*4A
1501492013.21,21025,23.06,74752.5,12.35,10.19,10.19,0,*4C
1501492014.43,21026,23.06,74756.3,12.33,10.13,10.17,0,*4D
1501492015.67,21027,23.06,74758.5,12.33,10.13,10.13,0,*48
1501492016.89,21028,23.06,74754.8,12.33,10.13,10.17,0,*43
1501492018.12,21029,23.06,74752.8,12.33,10.05,10.05,0,*46
1501492019.33,21030,23.06,74756.8,12.33,10.03,9.95,0,*79
1501492020.54,21031,23.06,74756.5,12.33,10.03,9.95,0,*78
1501492021.75,21032,23.06,74756.8,12.33,9.95,9.95,0,*4C
1501492022.95,21033,23.06,74752.5,12.31,10.13,10.13,0,*4F
1501492024.2,21034,23.06,74756.8,12.35,10.27,10.27,0,*4C
1501492025.42,21035,23.06,74754.0,12.33,10.17,10.17,0,*4B
1501492026.7,21036,23.06,74758.0,12.33,10.23,10.31,0,*4B
1501492027.98,21037,23.06,74758.8,12.33,10.23,10.27,0,*4D
1501492029.25,21038,23.06,74754.8,12.33,10.23,10.27,0,*42
1501492030.52,21039,23.06,74756.5,12.33,10.27,10.27,0,*47
1501492031.79,21040,23.06,74752.0,12.33,10.31,10.37,0,*4F
1501492033.04,21041,23.06,74758.3,12.33,10.17,10.27,0,*4B
1501492034.3,21042,23.06,74756.5,12.35,10.31,10.31,0,*4D
1501492035.57,21043,23.06,74756.0,12.33,10.27,10.31,0,*4D
1501492036.85,21044,23.06,74756.8,12.33,10.27,10.31,0,*4A
1501492038.13,21045,23.06,74756.0,12.33,10.23,10.31,0,*4F
1501492039.4,21046,23.06,74758.3,12.33,10.31,10.37,0,*49
1501492040.67,21047,23.06,74754.0,12.33,10.37,10.41,0,*4F
1501492041.94,21048,23.06,74752.8,12.33,10.31,10.37,0,*47
1501492043.21,21049,23.06,74752.0,12.33,10.31,10.41,0,*47
1501492044.43,21050,23.06,74756.5,12.35,10.33,10.41,0,*4B
1501492045.62,21051,23.06,74754.5,12.35,10.43,10.43,0,*4F
1501492046.83,21052,23.06,74756.8,12.35,10.41,10.43,0,*4E
1501492048.1,21053,23.06,74756.0,12.33,10.31,10.37,0,*4D
1501492049.3,21054,23.06,74756.0,12.35,10.33,10.43,0,*4D
1501492050.48,21055,23.06,74756.8,12.35,10.43,10.43,0,*4B
1501492051.76,21056,23.06,74758.5,12.33,10.31,10.27,0,*49
1501492053.0,21057,23.06,74756.5,12.35,10.27,10.27,0,*49
1501492054.22,21058,23.06,74756.5,12.35,10.43,10.41,0,*44
1501492055.4,21059,23.06,74756.3,12.35,10.43,10.43,0,*47
1501492056.6,21060,23.06,74758.5,12.35,10.47,10.47,0,*4D
1501492057.79,21061,23.06,74758.5,12.35,10.43,10.51,0,*4F
1501492058.98,21062,23.06,74758.3,12.35,10.43,10.43,0,*4F
1501492060.19,21063,23.06,74758.3,12.37,10.43,10.47,0,*48
1501492061.45,21064,23.06,74756.5,12.37,10.37,10.37,0,*4B
1501492062.71,21065,23.06,74756.8,12.37,10.37,10.37,0,*4A
1501492063.9,21066,23.06,74758.5,12.35,10.43,10.43,0,*4B
1501492065.09,21067,23.06,74754.0,12.35,10.51,10.55,0,*4E
1501492066.28,21068,23.06,74758.0,12.35,10.51,10.51,0,*45
1501492067.52,21069,23.06,74756.8,12.39,10.57,10.57,0,*48
1501492068.73,21070,23.06,74758.5,12.39,10.65,10.69,0,*4C
1501492069.97,21071,23.06,74758.3,12.37,10.55,10.57,0,*4D
1501492071.16,21072,23.06,74758.3,12.39,10.55,10.55,0,*42
1501492072.35,21073,23.06,74756.5,12.39,10.47,10.55,0,*40
1501492073.57,21074,23.06,74756.0,12.37,10.43,10.55,0,*4D
1501492074.79,21075,23.06,74760.8,12.37,10.47,10.55,0,*48
1501492076.0,21076,23.06,74760.0,12.37,10.43,10.55,0,*4F
1501492077.24,21077,23.06,74760.3,12.37,10.47,10.57,0,*48
1501492078.51,21078,23.06,74758.5,12.37,10.65,10.75,0,*47
1501492079.75,21079,23.06,74756.0,12.39,10.65,10.75,0,*48
1501492080.94,21080,23.06,74756.5,12.39,10.55,10.55,0,*4F
1501492082.15,21081,23.06,74756.8,12.39,10.37,10.43,0,*4D
1501492083.35,21082,23.06,74756.8,12.39,10.47,10.47,0,*4D
1501492084.54,21083,23.06,74760.8,12.39,10.43,10.55,0,*4B
1501492085.76,21084,23.06,74758.0,12.41,10.47,10.51,0,*43
1501492086.96,21085,23.06,74758.0,12.39,10.33,10.47,0,*49
1501492088.18,21086,23.06,74758.0,12.41,10.47,10.47,0,*46
1501492089.38,21087,23.06,74756.8,12.39,10.33,10.43,0,*4F
1501492090.57,21088,23.06,74758.5,12.39,10.43,10.47,0,*43
1501492091.79,21089,23.06,74756.5,12.41,10.47,10.51,0,*4E
1501492092.98,21090,23.06,74756.8,12.43,10.51,10.51,0,*43
1501492094.24,21091,23.06,74756.3,12.41,10.57,10.57,0,*40
1501492095.51,21092,23.06,74756.0,12.41,10.37,10.41,0,*42
1501492096.77,21093,23.06,74760.0,12.41,10.41,10.41,0,*42
1501492097.98,21094,23.06,74756.8,12.43,10.37,10.43,0,*44
1501492099.22,21095,23.06,74758.3,12.45,10.27,10.43,0,*42
1501492100.43,21096,23.06,74760.8,12.43,10.27,10.43,0,*47
1501492101.64,21097,23.06,74758.3,12.43,10.37,10.51,0,*44
1501492102.89,21098,23.06,74756.8,12.45,10.37,10.51,0,*4D
1501492104.14,21099,23.06,74758.3,12.45,10.09,10.19,0,*4D
1501492105.4,21100,23.06,74756.8,12.45,10.09,10.19,0,*4C
1501492106.65,21101,23.06,74758.8,12.45,10.09,10.19,0,*4D
1501492107.92,21102,23.06,74758.8,12.45,10.27,10.31,0,*48
1501492109.19,21103,23.06,74758.8,12.45,10.31,10.37,0,*48
1501492110.46,21104,23.06,74756.8,12.45,10.19,10.37,0,*45
1501492111.71,21105,23.06,74760.5,12.45,10.17,10.19,0,*46